Winthrop, MA

12:04 PM EST on December 06, 2016 (GMT -0500)
Logan International

Weather History for KBOS - July, 2014

Change the Weather History Date:

Wednesday, July 2, 2014

  Actual Average Record
Temperature  
Mean Temperature 82 °F 72 °F  
Max Temperature 91 °F 80 °F 98 °F (1963)
Min Temperature 73 °F 64 °F 51 °F (1883)
Degree Days  
Heating Degree Days 0 0  
Month to date heating degree days 0 0  
Since 1 June heating degree days 28 55  
Since 1 July heating degree days 0 0  
Cooling Degree Days 17 8  
Month to date cooling degree days 31 15  
Year to date cooling degree days 191 181  
Since 1 June cooling degree days 169 151  
Growing Degree Days 32 (Base 50)    
Moisture  
Dew Point 69 °F    
Average Humidity 66    
Maximum Humidity 79    
Minimum Humidity 52    
Precipitation  
Precipitation T in 0.09 in 1.38 in (1986)
Month to date precipitation T 0.18  
Year to date precipitation 20.57 22.02  
Sea Level Pressure  
Sea Level Pressure 29.88 in    
Wind  
Wind Speed 15 mph (SSW)    
Max Wind Speed 25 mph    
Max Gust Speed 32 mph    
Visibility 10 miles    
Events Rain    
T = Trace of Precipitation, MM = Missing Value Source: NWS Daily Summary

Daily Weather History Graph

Daily Weather History Graph

Search for Another Location

Airport or City:

Trip Planner

Search our weather history database for the weather conditions in past years. The results will help you decide how hot, cold, wet, or windy it might be!

Date:

Astronomy

Jul. 02, 2014 Rise Set
Actual Time 5:11 AM EDT 8:24 PM EDT
Civil Twilight 4:36 AM EDT 8:58 PM EDT
Nautical Twilight 3:52 AM EDT 9:43 PM EDT
Astronomical Twilight 2:58 AM EDT 10:37 PM EDT
Moon 10:18 AM EDT (7/2) 11:09 PM EDT (7/2)
Length of Visible Light 16h 22m
Length of Day
15h 13m
Waxing Crescent, 24% of the Moon is Illuminated
Jul 2
Waxing Crescent
Jul 5
First Quarter
Jul 12
Full
Jul 18
Last Quarter
Jul 26
New

Hourly Weather History & Observations

Time (EDT) Temp. Heat Index Dew Point Humidity Pressure Visibility Wind Dir Wind Speed Gust Speed Precip Events Conditions
12:54 AM 75.0 °F - 64.9 °F 71% 29.82 in 10.0 mi SSW 13.8 mph - N/A   Scattered Clouds
1:54 AM 75.0 °F - 64.9 °F 71% 29.83 in 10.0 mi SW 13.8 mph - N/A   Scattered Clouds
2:54 AM 73.9 °F - 66.0 °F 76% 29.85 in 10.0 mi SW 16.1 mph - N/A   Scattered Clouds
3:54 AM 73.9 °F - 66.0 °F 76% 29.85 in 10.0 mi SW 15.0 mph 24.2 mph N/A   Clear
4:54 AM 73.0 °F - 66.9 °F 81% 29.86 in 10.0 mi SW 12.7 mph - N/A   Clear
5:54 AM 73.0 °F - 66.9 °F 81% 29.87 in 10.0 mi SSW 12.7 mph - N/A   Mostly Cloudy
6:54 AM 75.0 °F - 68.0 °F 79% 29.88 in 10.0 mi SSW 12.7 mph - N/A   Scattered Clouds
7:54 AM 77.0 °F - 69.1 °F 76% 29.89 in 10.0 mi SSW 9.2 mph - N/A   Mostly Cloudy
8:54 AM 81.0 °F 84.4 °F 70.0 °F 69% 29.88 in 10.0 mi SSW 13.8 mph - N/A   Partly Cloudy
9:54 AM 82.0 °F 86.3 °F 71.1 °F 69% 29.88 in 10.0 mi South 13.8 mph - N/A   Scattered Clouds
10:54 AM 84.9 °F 90.7 °F 72.0 °F 65% 29.88 in 10.0 mi South 15.0 mph - N/A   Clear
11:54 AM 88.0 °F 94.7 °F 72.0 °F 59% 29.89 in 10.0 mi South 17.3 mph - N/A   Partly Cloudy
12:54 PM 89.1 °F 96.0 °F 72.0 °F 57% 29.88 in 10.0 mi South 16.1 mph - N/A   Scattered Clouds
1:54 PM 90.0 °F 96.9 °F 72.0 °F 55% 29.86 in 10.0 mi South 23.0 mph 27.6 mph N/A   Partly Cloudy
2:54 PM 91.0 °F 98.2 °F 72.0 °F 53% 29.86 in 10.0 mi South 21.9 mph 27.6 mph N/A   Partly Cloudy
3:54 PM 89.1 °F 95.0 °F 71.1 °F 55% 29.85 in 10.0 mi South 21.9 mph 28.8 mph N/A   Scattered Clouds
4:54 PM 87.1 °F 92.8 °F 71.1 °F 59% 29.86 in 10.0 mi SSW 17.3 mph 28.8 mph N/A   Mostly Cloudy
5:54 PM 87.1 °F 92.8 °F 71.1 °F 59% 29.89 in 10.0 mi SW 15.0 mph - N/A   Mostly Cloudy
6:54 PM 84.9 °F 89.4 °F 70.0 °F 61% 29.92 in 10.0 mi SW 19.6 mph 28.8 mph N/A   Mostly Cloudy
7:54 PM 81.0 °F 84.4 °F 70.0 °F 69% 29.92 in 10.0 mi South 12.7 mph - N/A   Mostly Cloudy
8:54 PM 79.0 °F - 70.0 °F 74% 29.89 in 10.0 mi South 12.7 mph - N/A   Mostly Cloudy
9:54 PM 77.0 °F - 70.0 °F 79% 29.90 in 10.0 mi SSW 12.7 mph - 0.00 in Rain Light Rain
10:54 PM 77.0 °F - 70.0 °F 79% 29.90 in 10.0 mi SSW 12.7 mph - 0.00 in   Scattered Clouds
11:54 PM 77.0 °F - 70.0 °F 79% 29.91 in 10.0 mi SW 13.8 mph 19.6 mph N/A   Scattered Clouds